ARIANE 2 DEB, 27650

Orbit data source: Space-Track

ARIANE 2 DEB, 27650 is space debris in HEO originally from a launch on Fri, 27 Jan 1989 UTC launched from the French Guiana (FRGUI). Debris objects in space refer to the collection of defunct objects orbiting the Earth. Examples of debris include non-operational satellites, rocket bodies, and fragments generated from explosions, collisions, or faulty payload assembly.

Loading next visibility...
Identifier
27650, 1989-006AE
Orbit
HEO
Last TLE update
21 hours ago
Origin
Manufacturer
EADS/LV
Mission
Spacecraft
Bus & Motor
Unknown
Mass
Unknown
Launch date (UTC)
1989-01-27 (36 years ago)
Launch vehicle
Unknown
Launch site
French Guiana (FRGUI)
Object type
Payload
Rocket body
Debris
Shape & HBR
Unknown
Radar Cross Section
Medium (>0.1 m² and <1 m²)

Expand to show TLE details & history

TLE from 21 hours ago
0 ARIANE 2 DEB
1 27650U 89006AE  25181.49218602  .00000164  00000-0  65814-3 0  9990
2 27650   8.5281  37.3133 7177073 148.8109 287.2044  2.32822005199919
Epoch: 2025-06-30T11:48Z
TLE epoch observation values (Epoch: 2025-06-30T11:48:44.872Z)
Latitude
0.00003°
Longitude
-58.74039°
Altitude
23,863.006 km
Speed
3.128 km/s
True Right ascension
02h 28m 59s
True Declination
0° 00' 00"
Sunlit
Object was in daylight at epoch
Visualization orbit readout
Latitude
0.39645°
Longitude
-56.45357°
Altitude
22,867.303 km
Speed
3.268 km/s
Apparent Right ascension
03h 15m 12s
Apparent Declination
-7° 17' 52"
Sunlit
Object is in daylight
Visualization observer readout
Local Sidereal Time
20:11:21
Azimuth
85.348° E
Elevation
-16.901°
Doppler factor
1
Orbital elements
Apogee altitude
34,935.807 km
Perigee altitude
411.509 km
Semi-major axis
24,051.795 km
Eccentricity
0.71771
Inclination
8.5281°
RAAN
37.3133°
Arg. of periapsis
148.8109°
True anomaly
Unknown
Mean anomaly
287.2044°
Eccentric anomaly
Unknown
Mean motion
0.58186 °/min
Orbital period
618.7 mins
BSTAR
0.00065814
Loading maneuver chart data...
Loading SW <> Apogee altitude chart data...
Loading historical data...
Loading historical data...
Loading historical data...
Loading historical data...
Loading historical data...
Loading historical data...
Loading historical data...

ARIANE 2 DEB Visibility forecast

Observer location: undefined°, undefined°

Span
Click to sort rows by Start time (UTC) header in descending order
Start Az.
Max El. time (UTC)
Max El. Az.
Max El.
End time (UTC)
End Az.
548 mins2025-07-01 11:27:13.486Z225.209° WSW2025-07-01 13:37:13.486Z218.499° SW24.323°2025-07-01 20:35:13.486Z175.048° S
56 mins2025-07-02 07:37:13.486Z191.74° SSW2025-07-02 08:33:13.486Z154.915° SSE22.792°2025-07-02 08:33:13.486Z154.915° SSE
|